SKYSAT-C9

Last updated on Mon Sep 07 2026 00:02:46 GMT+0000 (Coordinated Universal Time)

1 42989U 17068C 26249.39536838 .00008639 00000+0 19568-3 0 9999 2 42989 97.4522 28.9064 0007520 194.1404 165.9634 15.43336737495272
UTC large
Height (km)
Speed (km/s)
/
Latitude / Longitude
Inclination (degrees)
Orbital Period (minutes)
Azimuth
Elevation
Range (km)
Doppler Factor

Next 0 passes for location: London (51.5072 / 0.1276)

No passes found over London.
SKYSAT-C9